Regional Weather Roundup
Issued by NWS

Home | Current Version | Previous Version | Graphics & Text | Print | Product List | Glossary On
Versions: 1 2 3 4 5 6 7 8 9 10 11 12 13 14 15 16 17 18 19 20 21 22 23 24 25 26 27 28 29 30 31 32 33 34 35 36 37 38 39 40 41 42 43 44 45 46 47 48 49 50
000
ASUS43 KMPX 281801
RWRMN
WEATHER ROUNDUP FOR MINNESOTA
NATIONAL WEATHER SERVICE TWIN CITIES/CHANHASSEN MN
100 PM CDT SAT MAY 28 2016


NOTE: "FAIR" INDICATES FEW OR NO CLOUDS BELOW 12,000 FEET WITH NO
SIGNIFICANT WEATHER AND/OR OBSTRUCTIONS TO VISIBILITY. N/A MEANS
CURRENT SKY AND/OR WEATHER CONDITIONS ARE NOT AVAILABLE.

MNZ060>063-068>070-281900-
   Twin Cities Metro

CITY           SKY/WX    TMP DP  RH WIND       PRES   REMARKS
TWIN CITIES    CLOUDY    67  60  78 NW6       29.77S
6HR MIN TEMP:  61; 6HR MAX TEMP:  67; 6HR PCP: TRACE;

ST PAUL        CLOUDY    68  61  78 NW5       29.77S
CRYSTAL        CLOUDY    65  58  78 NW3       29.76S
BLAINE         CLOUDY    64  63  94 CALM      29.78R
EDEN PRAIRIE   CLOUDY    67  60  78 VRB6      29.76F
6HR MIN TEMP:  62; 6HR MAX TEMP:  67; 6HR PCP: TRACE;

SOUTH ST PAUL  CLOUDY    68  61  78 W3        29.76S
LAKE ELMO      DRIZZLE   64  63  94 NW3       29.78S
$$
MNZ001>005-007-008-013>017-022>024-027-028-281900-
   Northwest Minnesota

CITY           SKY/WX    TMP DP  RH WIND       PRES   REMARKS
BEMIDJI        CLOUDY    60  55  84 NE8       29.81R
HALLOCK        CLOUDY    72  55  56 CALM      29.84F
ROSEAU         CLOUDY    66  61  82 NE10      29.85S
WARROAD        MOSUNNY   64  61  88 NE10      29.86F
THIEF RVR FALL CLOUDY    66  52  59 NE12G20   29.84F
CROOKSTON      PTSUNNY   68  54  60 NE12      29.83F
FOSSTON        CLOUDY    59  57  94 NE8       29.83S
DETROIT LAKES  CLOUDY    63  54  72 N6        29.81F
MOORHEAD       CLOUDY    66  57  72 N10       29.81S
PARK RAPIDS    CLOUDY    62  54  74 VRB3      29.79S
MAHNOMEN       CLOUDY    60  56  88 NE13      29.81S
$$
MNZ006-009>011-018-025>026-281900-
   North Central Minnesota

CITY           SKY/WX    TMP DP  RH WIND       PRES   REMARKS
BAUDETTE       LGT RAIN  61  58  90 NE13      29.84S FOG
FLAG ISLAND    CLOUDY    61  57  88 N20       29.87S
INTL FALLS     FOG       59  57  93 NE9       29.82F VSB 1
6HR MIN TEMP:  56; 6HR MAX TEMP:  61; 6HR PCP:  0.01;

WASKISH        CLOUDY    61  57  88 NE10      29.81F
BIG FORK       DRIZZLE   61  57  88 N6        29.80S
LONGVILLE      CLOUDY    61  55  82 CALM      29.79S
GRAND RAPIDS   CLOUDY    61  57  87 CALM      29.80R
CRANE LAKE     CLOUDY    57  55  94 NE5       29.82S
ORR            CLOUDY    61  55  82 CALM      29.77S
COOK           CLOUDY    61  57  88 NE3       29.79S
WALKER         CLOUDY    58  56  91 N6        29.80R
$$
MNZ012-019>021-037-281900-
   Northeast Minnesota

CITY           SKY/WX    TMP DP  RH WIND       PRES   REMARKS
DULUTH         FOG       52  50  93 NE5       29.78F VSB 1/4
6HR MIN TEMP:  47; 6HR MAX TEMP:  55; 6HR PCP: TRACE;

ELY            CLOUDY    59  57  94 NE7       29.79S
HIBBING        CLOUDY    59  58  96 SE6       29.79R FOG
EVELETH        CLOUDY    59  57  94 E3        29.80R
DULUTH HARBOR  FOG       48  46  93 N5        29.80F VSB 1
TWO HARBORS    HAZE      54  48  82 NE5       29.78F VSB 1/2
SILVER BAY     FOG       54  52  94 NE6       29.78F VSB 1/4
GRAND MARAIS     N/A     46  44  93 E12       29.79S
G MARAIS ARPRT CLOUDY    63  57  82 NE6       29.81F
$$
MNZ029>031-032-039>041-046>048-054>057-064-281900-
   West Central Minnesota

CITY           SKY/WX    TMP DP  RH WIND       PRES   REMARKS
FERGUS FALLS   PTSUNNY   66  54  63 NE7       29.76S
WHEATON        PTSUNNY   70  57  64 NW6       29.81S
MORRIS         PTSUNNY   64  57  77 SW3       29.79S
ALEXANDRIA     CLOUDY    63  55  75 CALM      29.81R
ELBOW LAKE     CLOUDY    65  55  70 NE3       29.79F
WADENA         CLOUDY    61  54  77 N5        29.80S
GLENWOOD       CLOUDY    63  57  82 CALM      29.81S
APPLETON       LGT RAIN  64  55  72 N5        29.79S
ORTONVILLE     CLOUDY    64  55  72 N6        29.80S
MADISON        LGT RAIN  63  57  82 CALM      29.81R
WILLMAR        LGT RAIN  61  59  94 E5        29.80S
$$
MNZ033>034-036-042>043-049>051-058-059-281900-
   Central Minnesota

CITY           SKY/WX    TMP DP  RH WIND       PRES   REMARKS
ST CLOUD       LGT RAIN  60  57  89 CALM      29.79S
6HR MIN TEMP:  56; 6HR MAX TEMP:  61; 6HR PCP: TRACE;

SAUK CENTRE    CLOUDY    62  56  81 CALM      29.80S
PAYNESVILLE    CLOUDY    61  58  90 S3        29.80S
AITKIN         CLOUDY    63  54  72 CALM      29.77F
PINE RIVER     CLOUDY    61  55  82 CALM      29.83S
BRAINERD       CLOUDY    59  56  89 NE3       29.80S
STAPLES        CLOUDY    61  55  82 N8        29.80R
LONG PRAIRIE   CLOUDY    59  54  82 W3        29.81S
LITTLE FALLS   CLOUDY    63  55  77 CALM      29.79S
LITCHFIELD     LGT RAIN  61  61 100 CALM      29.80S
BUFFALO        RAIN      60  56  88 CALM      29.81R
MAPLE LAKE     PTSUNNY   60  58  92 CALM      29.81S
HUTCHINSON     RAIN      61  60  96 CALM      29.80F
$$
MNZ037-044-045-052-053-281900-
   East Central Minnesota

CITY           SKY/WX    TMP DP  RH WIND       PRES   REMARKS
PRINCETON      CLOUDY    63  57  82 CALM      29.80R
MORA           PTSUNNY   59  52  77 CALM      29.80F
CAMBRIDGE      CLOUDY    64  55  72 W5        29.77R
RUSH CITY      CLOUDY    64  57  79 CALM      29.78S
MOOSE LAKE     CLOUDY    57  54  88 CALM      29.78S
HINCKLEY       CLOUDY    63  57  82 N3        29.78F
CLOQUET        CLOUDY    54  52  94 CALM      29.79F FOG
MCGREGOR       CLOUDY    61  55  82 CALM      29.79S
$$
MNZ071>073-080-081-089-090-097-098-281900-
   Southwest Minnesota

CITY           SKY/WX    TMP DP  RH WIND       PRES   REMARKS
MONTEVIDEO     LGT RAIN  61  61 100 CALM      29.82R
GRANITE FALLS  LGT RAIN  61  59  92 CALM      29.82R
CANBY          RAIN      63  60  93 CALM      29.82S
MARSHALL       RAIN      60  59  96 NE7       29.81R
REDWOOD FALLS  LGT RAIN  60  58  92 NE5       29.77F
OLIVIA         RAIN      63  59  88 NE3       29.77F
PIPESTONE      CLOUDY    63  61  94 NE10G17   29.79S
WINDOM         CLOUDY    64  61  88 CALM      29.78S
WORTHINGTON    CLOUDY    65  60  84 N7        29.78S
JACKSON        LGT RAIN  64  59  82 NW3       29.79R
TRACY          RAIN      60  60  99 N5        29.80S
SLAYTON        LGT RAIN  60  60 100 N7        29.80S
$$
MNZ065>067-074>077-082>085-091>093-281900-
   South Central Minnesota

CITY           SKY/WX    TMP DP  RH WIND       PRES   REMARKS
MANKATO        CLOUDY    64  61  88 NW6       29.76R
NEW ULM        LGT RAIN  61  61 100 N6        29.77S
ST JAMES       LGT RAIN  59  57  94 NW9       29.77S
FAIRMONT       CLOUDY    64  61  88 CALM      29.76F
GLENCOE        RAIN      62  62  99 N3        29.77F
OWATONNA       CLOUDY    72  63  73 SE8       29.76S
WASECA         LGT RAIN  64  61  88 SE9       29.77S
ALBERT LEA     CLOUDY    66  66 100 SE8       29.76F
$$
MNZ078>079-086>088-094>096-281900-
   Southeast Minnesota

CITY           SKY/WX    TMP DP  RH WIND       PRES   REMARKS
ROCHESTER      CLOUDY    70  64  81 S17       29.78S
6HR MIN TEMP:  63; 6HR MAX TEMP:  71; 6HR PCP:  0.15;

RED WING       LGT RAIN  68  63  83 S6        29.76R
STANTON        CLOUDY    70  62  75 SE3       29.75S
DODGE CENTER   MOSUNNY   72  64  78 S15       29.77F
WINONA         CLOUDY    70  64  83 SW3       29.78S
AUSTIN         MOSUNNY   66  63  88 S3        29.77F
PRESTON        PTSUNNY   69  61  75 S13       29.80S
$$
ABBREVIATIONS USED IN REMARKS
   TC - TEMPERATURES IN CELSIUS
  WCI - WIND CHILL INDEX
   HX - HEAT INDEX
  VSB - VISIBILITY
$$




USA.gov is the U.S. government's official web portal to all federal, state and local government web resources and services.